Location: Peebles
(55.6412°N, 3.1714°W)
Time: 23:10:45
(UTC+00:00)

FENGYUN 1C DEB - Pass Details

Date: 11 February 2023
Orbit: 707 x 862 km, 98.5° (Epoch: 07 November)

Event Time Altitude Azimuth Distance (km) Brightness Sun altitude
Rises 20:12:35 0° 187° (S) 3,399 ? -26.2°
Reaches altitude 10° 20:15:06 10° 195° (SSW) 2,472 ? -26.6°
Maximum altitude 20:20:14 39° 264° (W) 1,255 ? -27.3°
Drops below altitude 10° 20:25:23 10° 333° (NNW) 2,469 ? -28.0°
Sets 20:27:54 0° 341° (NNW) 3,394 ? -28.3°
